Location: Newark
(45.8667°N, 9.7333°E)
Time: 00:31:24
(UTC+00:00)

Vanguard 2 Rocket - Pass Details

Date: 04 February 2020
Orbit: 553 x 3327 km, 32.9° (Epoch: 24 February)

Event Time Altitude Azimuth Distance (km) Brightness Sun altitude
Rises 04:22:08 0° 245° (WSW) 2,727 - -24.3°
Reaches altitude 10° 04:25:28 10° 213° (SSW) 1,842 - -23.7°
Maximum altitude 04:27:12 12° 187° (S) 1,741 - -23.4°
Exits shadow 04:27:23 12° 184° (S) 1,750 8.3 -23.4°
Drops below altitude 10° 04:29:03 10° 161° (SSE) 1,992 8.9 -23.1°
Sets 04:33:02 0° 132° (SE) 3,220 10.5 -22.4°
